Location: Ammerl�gen
(47.2167°N, 9.6000°E)
Time: 08:56:08
(UTC+00:00)

Iridium 4 Rocket - Pass Details

Date: 02 August 2021
Orbit: 584 x 904 km, 86.9° (Epoch: 18 September)

Event Time Altitude Azimuth Distance (km) Brightness Sun altitude
Rises 01:57:26 0° 349° (N) 3,436 7.5 -16.9°
Reaches altitude 10° 02:00:00 10° 341° (NNW) 2,530 6.6 -16.6°
Maximum altitude 02:05:08 35° 278° (W) 1,424 4.6 -16.1°
Enters shadow 02:07:51 23° 233° (SW) 1,814 4.8 -15.8°
